Temperature
13 13 13 13 13 13 13 13 13 13 13 13 12 12 12 12 12 11 11 11 11 10 10 10 10 10 10 10 10 10 10 10 10 10 10 10 10 10 10 10 10 11 11
13 13 13 13 13 13 13 13 13 13 12 12 12 12 12 11 11 11 11 10 10 10 10 10 10 10 10 10 10 10 10 10 10 10 10 10 10 10 10 10 10 10 10
12 12 12 12 12 12 12 12 12 12 12 12 12 11 11 11 11 10 10 10 10 10 10 10 10 9 9 9 9 9 9 9 9 9 9 9 9 9 9 9 9 9 9
12 12 12 12 12 12 12 12 12 12 12 11 11 11 11 10 10 10 10 10 10 10 10 10 9 9 9 9 9 9 8 9 9 9 9 9 9 9 9 9 9 9 9
12 12 12 12 12 11 11 11 11 11 11 11 11 11 10 10 10 10 9 9 9 9 9 9 9 9 9 9 9 9 8 8 8 8 8 8 8 8 8 8 8 8 8
11 11 11 11 11 11 11 11 11 11 10 10 10 10 10 9 9 9 9 9 9 9 9 9 9 9 9 9 8 8 8 8 8 8 8 7 7 7 7 7 7 7 7
11 10 10 11 11 10 10 10 10 10 10 10 10 9 9 9 9 9 9 9 8 8 8 8 8 8 8 8 8 8 8 8 8 7 7 7 7 7 7 7 7 7 7
10 10 10 10 10 10 10 10 10 10 10 9 9 9 9 8 8 8 8 8 8 8 8 8 8 8 8 8 7 7 7 7 7 7 6 6 6 6 6 6 6 6 6
10 10 10 9 9 9 9 9 9 9 9 9 9 9 8 8 8 8 8 8 8 7 7 7 7 7 7 7 7 7 7 7 7 6 6 6 5 5 5 5 5 5 5
9 9 9 9 9 9 9 9 9 9 9 9 8 8 8 8 8 7 7 7 7 7 7 7 7 7 7 7 6 6 6 6 6 6 6 5 5 5 4 5 4 4 4
9 9 9 9 9 9 9 8 8 8 8 8 8 8 8 7 7 7 7 7 7 7 7 7 7 6 6 6 6 6 6 6 6 5 5 5 5 4 4 4 4 4 4
9 9 8 8 8 8 8 8 8 8 8 8 7 7 7 7 7 6 6 6 6 7 7 6 6 6 6 6 5 5 5 5 5 5 5 5 5 5 4 4 4 4 3
8 8 8 8 8 8 8 8 7 7 7 7 7 7 7 6 6 6 6 5 5 6 6 6 6 6 5 5 5 5 5 5 5 4 4 4 4 4 4 4 4 4 3
8 8 8 7 7 7 7 7 7 7 7 7 6 6 6 6 6 5 5 5 5 5 5 5 5 5 5 5 5 4 4 4 4 4 4 4 4 4 4 4 3 3 3
7 7 7 7 7 7 7 7 7 6 6 6 6 6 6 6 5 5 5 5 4 4 4 5 5 5 4 4 4 4 4 4 4 4 3 3 3 3 3 3 3 3 3
7 7 7 7 7 7 6 6 6 6 6 6 6 5 5 5 5 5 4 4 4 3 3 4 4 4 4 4 4 4 4 4 3 3 3 3 3 3 3 3 2 2 2
7 7 6 6 6 6 6 6 6 6 5 5 5 5 5 5 4 4 4 4 3 3 3 3 3 3 3 3 3 3 3 3 3 3 3 2 2 2 2 2 2 2 2
6 6 6 6 6 6 5 5 5 5 5 5 5 5 4 4 4 4 4 4 3 3 2 3 3 3 3 3 2 2 2 2 2 2 2 2 2 2 2 2 1 1 1
6 6 6 6 5 5 5 5 5 5 5 5 4 4 4 4 4 3 3 3 3 3 2 2 2 2 2 2 2 2 2 2 2 2 2 2 1 1 1 1 1 1 1
6 5 5 5 5 5 5 5 4 4 4 4 4 4 4 3 3 3 3 3 2 2 2 1 1 1 1 1 1 1 2 2 1 2 1 1 1 1 0 0 0 0 0
5 5 5 5 5 4 4 4 4 4 4 4 4 3 3 3 3 3 2 2 2 2 1 1 1 1 1 1 1 1 1 1 1 1 1 1 0 0 0 0 -0 -0 -0
5 5 5 4 4 4 4 4 4 4 3 3 3 3 3 3 2 2 2 2 1 1 1 1 0 0 1 0 0 -0 -0 -0 -0 0 0 0 -0 0 -0 -0 -0 -1 -1
5 4 4 4 4 4 4 3 3 3 3 3 3 3 2 2 2 2 1 1 1 1 0 0 -0 -0 -0 -0 -1 -1 -1 -1 -1 -1 -1 -0 -0 -0 -1 -1 -1 -1 -1
4 4 4 4 4 4 3 3 3 3 3 3 2 2 2 2 1 1 1 1 1 0 0 -0 -0 -0 -1 -1 -1 -1 -2 -2 -1 -1 -2 -2 -1 -1 -1 -1 -1 -2 -2
4 4 3 3 3 3 3 3 3 2 2 2 2 2 2 1 1 1 0 0 0 0 -0 -0 -1 -1 -1 -1 -2 -2 -2 -2 -2 -2 -2 -3 -2 -2 -1 -1 -2 -2 -3
3 3 3 3 3 3 2 2 2 2 2 2 2 1 1 1 1 0 -0 -0 -0 -0 -1 -1 -1 -1 -1 -1 -2 -2 -3 -3 -3 -3 -3 -3 -3 -3 -3 -3 -2 -3 -3
Wind_Speed
5 5 5 6 6 6 6 5 5 6 6 6 6 6 6 7 8 9 9 11 10 9 8 8 9 9 9 9 9 9 9 9 8 9 9 9 10 10 10 11 10 10 9
6 5 5 5 5 6 6 5 5 5 4 5 5 6 6 7 8 9 9 10 11 10 9 9 10 10 10 10 9 10 9 9 9 9 9 10 10 10 10 10 10 10 10
8 7 5 4 5 6 7 6 6 5 4 4 4 5 6 6 7 8 8 9 9 10 10 10 10 10 10 10 10 9 10 10 10 10 10 10 10 10 10 10 10 10 10
8 7 5 4 5 6 6 4 3 4 4 4 3 3 4 5 6 7 8 8 8 8 9 10 10 10 10 10 10 10 9 9 10 10 10 10 10 10 10 10 11 11 11
7 7 5 4 5 5 4 3 4 3 3 4 3 4 3 3 4 5 6 7 8 8 8 8 9 9 10 10 10 9 9 9 10 10 10 10 10 10 10 10 10 11 11
7 7 5 5 5 4 4 4 4 4 3 3 4 4 4 3 4 4 4 6 7 7 7 7 8 8 9 9 9 9 9 9 9 9 10 10 10 10 10 10 10 11 11
6 6 4 4 4 4 4 4 3 4 3 2 3 3 3 3 3 2 3 4 4 5 6 6 6 7 7 8 8 9 9 9 9 9 9 9 10 10 10 10 10 11 11
5 5 4 3 3 3 4 3 3 2 2 3 2 2 1 2 2 1 1 1 2 3 4 4 4 5 6 7 7 8 8 9 9 9 9 9 9 10 10 10 10 10 11
5 5 5 4 3 3 3 3 3 3 2 2 2 2 2 2 1 1 1 1 1 1 1 2 3 3 4 5 6 7 8 8 9 9 9 9 10 10 10 10 10 10 10
4 5 5 4 3 3 3 2 2 2 3 1 1 2 2 2 1 1 2 1 1 0 1 0 1 1 3 4 5 6 7 8 8 9 9 10 10 11 10 10 10 10 10
3 4 4 4 3 2 2 2 2 2 2 2 2 1 1 1 1 2 2 2 2 1 1 1 1 1 1 3 4 6 7 8 8 9 9 10 10 11 11 11 10 10 11
1 2 2 3 2 2 2 2 2 3 2 2 2 1 2 2 1 2 1 2 3 2 2 1 1 1 1 2 3 5 7 7 8 9 10 10 11 11 11 11 11 11 11
1 1 1 1 1 2 2 2 2 2 2 2 2 1 1 2 2 2 2 2 2 2 2 2 2 2 2 3 5 6 7 8 9 10 10 10 11 11 11 11 11 11 11
2 2 2 2 2 2 2 2 2 2 2 2 2 2 2 2 2 2 3 2 1 3 2 3 2 2 3 3 5 6 7 9 9 10 10 11 11 10 10 11 10 10 10
2 3 3 2 2 3 3 3 2 2 2 2 2 2 1 2 2 2 2 3 3 2 3 3 2 2 3 4 6 6 8 9 10 10 11 11 11 10 10 10 10 10 10
2 3 3 3 2 2 2 2 2 2 2 2 2 2 2 1 2 2 2 2 3 4 4 3 3 3 4 5 7 7 8 9 10 10 11 11 11 10 11 10 10 10 10
3 3 4 3 3 3 3 3 3 3 3 3 2 3 3 3 2 2 2 2 3 3 5 4 3 3 3 4 7 8 8 9 9 10 10 10 10 11 11 11 10 10 10
3 3 3 3 3 3 3 4 4 4 4 4 3 3 4 3 3 3 2 3 4 4 5 6 4 3 4 4 5 5 7 8 9 10 10 10 11 11 11 10 10 10 10
3 3 3 4 4 4 4 4 4 4 4 4 4 5 5 4 4 3 3 3 3 4 4 5 5 3 4 3 4 4 4 5 7 9 9 10 11 11 11 10 10 9 9
4 4 4 4 4 4 4 4 4 4 4 4 5 5 5 5 6 5 4 5 4 4 4 4 5 4 4 3 2 3 4 3 4 5 7 9 10 10 10 10 9 9 9
5 4 4 4 4 4 4 5 5 5 5 5 5 5 5 7 8 6 5 5 4 3 4 4 5 4 4 3 3 2 4 4 4 2 3 4 6 6 8 10 9 9 9
4 4 5 5 5 5 7 8 6 5 5 5 5 5 5 6 8 9 9 8 7 5 5 4 4 5 6 4 3 3 3 4 4 2 2 4 2 4 6 9 10 9 8
5 5 5 5 6 7 8 9 9 5 5 5 6 5 4 5 6 5 7 8 8 10 9 6 6 7 6 5 4 4 4 5 5 3 2 4 2 4 6 9 10 8 7
5 5 6 6 6 7 9 9 9 5 5 5 6 6 6 5 5 5 5 5 6 6 8 6 7 7 7 5 5 5 5 5 4 3 2 4 3 4 4 7 8 7 7
5 5 4 6 6 7 9 9 8 4 4 6 6 6 6 6 9 9 6 6 6 6 8 9 10 10 11 10 7 3 3 3 4 3 2 3 3 3 3 3 6 7 7
5 5 5 5 6 7 8 9 8 4 4 4 4 5 9 9 10 10 6 6 7 7 5 5 6 7 6 7 8 5 4 4 4 4 2 2 2 2 3 2 2 4 6
Wind_Direction
92 87 81 78 77 77 76 73 76 77 72 67 75 84 80 76 76 73 65 67 69 67 65 62 57 54 49 46 42 42 47 45 42 38 33 29 25 21 18 17 13 9 6
101 93 83 72 69 75 81 82 81 82 78 77 76 77 83 81 80 76 70 65 65 66 67 63 58 51 44 42 41 43 47 45 41 36 31 28 23 18 15 12 10 6 2
105 98 88 73 67 77 82 79 71 72 73 74 72 73 78 80 83 77 74 68 62 60 63 61 56 50 42 38 38 44 47 42 37 33 29 25 20 15 14 14 13 9 4
103 98 90 77 77 81 79 77 65 68 63 66 68 63 70 78 82 78 76 73 68 63 61 62 56 52 46 39 36 38 41 38 32 28 25 22 17 14 13 12 12 9 5
99 96 89 85 87 80 72 77 65 70 66 61 72 70 62 66 69 78 75 70 69 68 65 63 60 55 48 41 36 34 32 30 25 22 22 18 13 9 8 7 8 5 2
100 98 92 86 87 84 73 75 81 68 74 66 70 67 56 54 63 65 69 68 67 68 70 67 59 50 43 39 34 30 26 23 20 18 17 14 8 3 359 3 4 0 0
100 100 98 89 85 89 92 90 91 82 58 48 72 54 35 45 62 63 64 65 60 64 68 66 61 52 40 34 29 26 21 15 13 11 7 4 1 358 356 358 359 357 355
95 102 102 98 94 98 90 84 91 95 63 40 92 105 54 348 11 45 51 71 54 58 58 58 57 49 43 34 25 22 14 8 2 1 0 357 354 351 350 351 354 355 353
96 103 108 107 101 107 112 100 97 110 112 48 52 123 140 218 294 327 2 41 20 54 41 42 44 37 37 34 24 12 7 1 354 350 350 352 348 346 346 345 346 346 346
91 99 106 109 106 102 111 108 94 107 119 112 53 52 100 144 168 292 320 332 332 303 292 344 10 23 32 26 13 4 2 356 349 344 341 341 340 340 337 337 338 339 339
82 94 104 106 106 106 112 107 107 111 119 142 150 134 101 76 120 171 264 306 326 293 270 253 242 275 2 3 355 351 349 345 340 336 334 334 333 332 331 333 334 334 334
72 82 104 113 121 125 129 128 127 120 118 127 139 153 158 158 165 154 218 278 288 284 279 264 241 248 282 323 321 331 332 331 331 328 326 327 329 328 326 325 327 329 328
191 197 133 152 159 157 151 145 135 133 135 139 160 172 171 180 167 159 176 242 277 286 286 268 244 254 273 304 308 314 316 319 321 320 319 322 324 323 319 319 320 323 325
198 190 188 193 187 175 166 153 144 160 143 152 170 169 180 195 183 177 176 178 271 292 276 268 267 251 274 293 299 304 308 309 312 312 312 313 314 313 313 315 318 319 319
190 182 185 190 190 182 177 165 172 181 160 167 187 186 193 204 195 197 187 179 186 249 273 267 269 265 289 295 301 303 303 302 306 307 306 304 305 305 306 307 309 310 312
185 179 188 189 189 188 181 173 185 189 180 189 196 197 209 215 210 203 197 200 197 206 250 266 255 273 296 296 300 301 296 299 302 303 303 302 300 299 300 300 303 304 306
189 192 194 192 194 198 192 190 203 195 197 206 205 209 220 209 206 213 205 205 210 205 241 271 264 275 274 279 300 299 296 294 296 299 299 301 301 301 298 295 297 299 302
197 196 193 193 203 206 202 201 208 205 204 214 218 219 229 216 216 214 211 220 221 217 225 261 276 273 265 271 279 286 294 294 290 295 296 298 300 301 300 296 295 296 300
198 198 198 205 212 212 210 213 211 211 213 218 218 221 228 214 228 224 219 230 234 232 224 244 268 268 271 276 283 283 285 290 293 293 292 295 297 298 300 299 297 300 299
201 207 211 216 218 218 216 217 215 218 221 225 224 223 222 217 225 225 225 227 230 236 236 249 263 271 270 270 267 282 298 291 294 296 292 295 296 297 297 299 297 299 298
211 210 212 221 223 221 222 220 220 221 221 230 233 231 229 228 229 227 228 222 217 230 240 249 261 270 270 270 266 260 282 300 291 272 294 294 294 292 292 295 289 288 290
214 211 215 219 226 233 242 238 228 221 220 224 234 238 240 239 242 244 246 238 224 224 232 239 255 262 268 261 259 262 277 303 301 284 292 287 267 273 282 285 285 285 286
215 221 225 223 232 241 246 245 235 219 219 223 227 230 240 240 243 239 251 251 248 249 241 232 244 253 260 250 254 265 257 257 264 273 290 284 276 274 279 283 286 282 290
217 223 229 229 237 248 248 245 240 222 221 227 227 224 229 239 236 233 232 240 247 253 253 242 238 247 248 248 241 247 255 263 265 256 218 270 285 275 286 287 282 279 288
224 226 230 229 236 251 249 244 238 216 226 236 234 228 227 234 246 247 238 241 254 262 266 259 258 262 267 268 259 252 252 266 282 267 208 243 276 286 285 277 279 279 285
227 228 236 233 233 244 251 246 234 211 225 239 242 239 241 242 248 246 236 233 249 258 254 265 270 273 272 271 266 239 227 240 265 272 220 223 264 303 303 284 277 283 287
Height
1524 1526 1527 1528 1530 1531 1532 1532 1533 1534 1535 1536 1536 1537 1537 1538 1538 1539 1540 1540 1540 1540 1540 1540 1540 1539 1539 1538 1538 1537 1536 1536 1535 1535 1534 1534 1533 1532 1532 1531 1530 1530 1529
1524 1525 1526 1528 1529 1530 1531 1532 1533 1533 1534 1535 1535 1536 1536 1537 1537 1538 1538 1539 1539 1539 1539 1539 1538 1538 1537 1537 1536 1536 1535 1534 1534 1533 1533 1532 1531 1531 1530 1529 1528 1528 1527
1523 1525 1526 1527 1528 1529 1530 1531 1532 1532 1533 1534 1534 1535 1535 1536 1536 1537 1537 1538 1538 1538 1538 1537 1537 1536 1536 1535 1535 1534 1534 1533 1532 1532 1531 1530 1529 1529 1528 1527 1526 1525 1524
1523 1524 1526 1527 1528 1529 1529 1530 1531 1531 1532 1533 1533 1534 1534 1535 1535 1536 1536 1536 1536 1536 1536 1536 1535 1535 1534 1534 1533 1533 1532 1531 1531 1530 1529 1528 1527 1527 1526 1525 1524 1523 1522
1522 1523 1525 1526 1527 1527 1528 1529 1530 1531 1531 1532 1532 1532 1533 1534 1534 1535 1535 1535 1535 1535 1535 1534 1534 1533 1533 1532 1532 1531 1530 1530 1529 1528 1527 1526 1525 1525 1524 1523 1521 1520 1519
1521 1522 1523 1524 1526 1527 1527 1528 1529 1530 1530 1530 1530 1531 1532 1533 1533 1533 1533 1534 1534 1534 1533 1533 1532 1532 1531 1531 1530 1529 1529 1528 1527 1526 1525 1524 1524 1523 1522 1520 1519 1518 1516
1520 1522 1523 1524 1525 1526 1526 1527 1528 1528 1529 1529 1530 1530 1531 1532 1532 1532 1532 1532 1532 1532 1532 1531 1531 1530 1530 1529 1528 1527 1527 1526 1525 1524 1523 1522 1521 1520 1519 1518 1517 1515 1513
1520 1521 1522 1523 1524 1525 1525 1526 1527 1527 1528 1528 1529 1529 1529 1531 1530 1530 1530 1531 1531 1530 1530 1530 1529 1528 1528 1527 1526 1525 1525 1524 1523 1522 1521 1520 1519 1518 1517 1515 1514 1512 1511
1519 1521 1521 1522 1523 1524 1524 1525 1525 1526 1526 1527 1527 1528 1528 1528 1528 1528 1528 1528 1529 1528 1528 1527 1527 1526 1525 1525 1524 1523 1522 1521 1521 1520 1518 1517 1516 1515 1514 1513 1511 1509 1508
1519 1520 1520 1521 1522 1522 1523 1523 1524 1524 1524 1524 1525 1525 1527 1526 1527 1526 1526 1526 1526 1526 1525 1525 1524 1524 1523 1522 1521 1520 1519 1518 1517 1516 1515 1514 1513 1512 1511 1510 1508 1506 1505
1517 1518 1519 1519 1520 1521 1521 1522 1522 1522 1522 1523 1523 1523 1524 1524 1524 1524 1523 1524 1524 1523 1523 1522 1521 1521 1520 1519 1518 1517 1517 1515 1514 1513 1512 1511 1509 1508 1507 1506 1505 1503 1501
1515 1516 1517 1518 1518 1519 1519 1520 1520 1520 1520 1521 1521 1521 1521 1522 1521 1521 1521 1520 1520 1520 1519 1519 1518 1518 1517 1516 1515 1514 1513 1512 1511 1509 1508 1507 1505 1504 1503 1502 1500 1499 1497
1514 1515 1515 1516 1517 1517 1517 1518 1518 1518 1518 1519 1519 1519 1519 1519 1519 1519 1519 1518 1517 1516 1516 1515 1515 1514 1514 1513 1512 1511 1510 1508 1507 1506 1504 1503 1501 1500 1499 1498 1496 1494 1493
1512 1513 1514 1514 1514 1515 1515 1516 1515 1515 1516 1516 1516 1516 1516 1516 1516 1515 1516 1515 1514 1513 1512 1512 1511 1511 1510 1509 1508 1507 1506 1504 1503 1501 1500 1499 1497 1496 1494 1493 1492 1490 1488
1509 1510 1511 1512 1512 1512 1513 1513 1513 1513 1513 1513 1513 1513 1513 1512 1512 1512 1512 1512 1512 1510 1508 1508 1508 1507 1507 1505 1504 1503 1501 1500 1498 1497 1496 1494 1493 1491 1490 1489 1487 1485 1484
1507 1507 1508 1509 1509 1509 1510 1510 1510 1510 1510 1510 1510 1510 1509 1509 1509 1509 1508 1508 1508 1507 1505 1504 1504 1504 1503 1501 1500 1498 1497 1496 1494 1493 1491 1490 1488 1487 1485 1484 1482 1481 1479
1504 1505 1505 1506 1506 1506 1507 1507 1507 1507 1506 1506 1507 1507 1506 1506 1505 1505 1504 1504 1504 1503 1501 1499 1499 1499 1498 1497 1495 1494 1492 1491 1490 1488 1487 1485 1484 1482 1481 1479 1478 1476 1474
1501 1501 1502 1502 1503 1503 1503 1503 1503 1503 1503 1503 1503 1502 1502 1501 1501 1501 1500 1500 1499 1498 1497 1495 1494 1494 1493 1492 1490 1489 1488 1486 1485 1483 1482 1480 1479 1477 1476 1474 1472 1471 1469
1497 1498 1498 1499 1499 1499 1499 1499 1499 1499 1499 1498 1498 1498 1498 1497 1497 1496 1496 1495 1494 1493 1492 1490 1489 1488 1488 1487 1485 1484 1483 1481 1480 1478 1477 1475 1474 1472 1470 1469 1467 1466 1464
1493 1494 1494 1494 1495 1495 1495 1495 1495 1494 1494 1494 1494 1494 1493 1493 1493 1492 1491 1490 1490 1488 1487 1485 1484 1483 1482 1481 1480 1478 1476 1475 1474 1473 1471 1470 1468 1467 1465 1464 1462 1461 1459
1489 1489 1490 1490 1490 1490 1490 1490 1490 1490 1489 1489 1489 1489 1489 1488 1488 1487 1486 1485 1484 1483 1482 1481 1479 1478 1477 1476 1475 1473 1471 1469 1468 1467 1466 1465 1463 1462 1461 1459 1457 1456 1454
1484 1484 1484 1485 1485 1485 1485 1485 1485 1485 1484 1484 1484 1484 1484 1484 1483 1482 1481 1480 1480 1479 1477 1476 1475 1473 1472 1472 1470 1468 1466 1464 1462 1463 1460 1459 1458 1457 1455 1454 1452 1451 1449
1479 1479 1480 1480 1480 1480 1480 1480 1480 1480 1479 1479 1479 1479 1478 1478 1478 1477 1476 1475 1475 1474 1473 1472 1470 1468 1467 1467 1465 1463 1462 1460 1458 1457 1455 1453 1453 1451 1450 1448 1447 1446 1444
1474 1474 1474 1474 1475 1475 1475 1475 1475 1474 1474 1474 1474 1474 1473 1473 1473 1472 1471 1470 1469 1468 1468 1466 1465 1463 1463 1461 1460 1459 1457 1455 1453 1452 1451 1448 1446 1446 1445 1443 1442 1441 1440
1468 1469 1469 1469 1469 1469 1469 1469 1469 1468 1468 1468 1468 1468 1468 1467 1467 1466 1465 1464 1463 1462 1462 1460 1459 1458 1457 1456 1455 1454 1452 1450 1448 1447 1446 1444 1441 1440 1439 1438 1437 1436 1435
1463 1463 1463 1463 1463 1464 1464 1464 1463 1463 1462 1462 1462 1462 1462 1462 1461 1460 1459 1458 1457 1456 1456 1455 1454 1453 1452 1450 1449 1448 1447 1445 1443 1441 1440 1440 1437 1436 1433 1432 1432 1432 1430